Con. actuales
Mostly Clear
Conditions



PressiĆ³n:
1027.92 (hPa) - 30.35 (inHG)
Visibilidad:

10.0 (km) - 6.2 (miles)
Base de Nubes

Despejado (Mts) - Despejado (Feets)
   Temperatura
14  °C
Temperatura
1  °C
41  %
 Humedad
   Velocidad del Viento
3  km/h
2  kts
2  mph
0.9  m/s
   Wind Direction
N
45°
E
90°
135°
S
180°
225°
O
270°
315°
 210°

Oeste Nor
Oeste
   Airport Data
SAEZ
Ministro Pistarini International Airport
Metar :SAEZ 312100Z 21002KT CAVOK 14/01 Q1028 NOSIG
Sat 31st July 18:00 pm
   Raw Metar Info
Raw METAR is the most common format in the world for the transmission of observational weather data. It is highly standardized through the International Civil Aviation Organization (ICAO), which allows it to be understood throughout most of the world.
   API Info
Data Provided by
https://www.checkwx.com/weather/SAEZ

Aviation Weather providing METAR, TAF, AIRMET, SIGMET and OUTLOOK Weather Reports
   © Info
CSS/SVG/PHP scripts were developed by weather34.com for use in the weather34 template © 2015-2021

Guide Info provided by Metar-Wikipedia